Current Version              Previous Version:    01  02  03  04  05  06  07  08  09  10  11  12  13  14  15  16  17  18  19  20  21  22  23  24  25  26  27  28  29  30  
   31  32  33  34  35  36  37  38  39  40  41  42  43  44  45  46  47  48  49  50  51  52  53  54  55  56  57  58  59  60  

[Printable]
566
ASUS44 KEWX 300410
RWRTX
SOUTH TEXAS REGIONAL WEATHER ROUNDUP
NATIONAL WEATHER SERVICE AUSTIN/SAN ANTONIO TX
1000 PM CST THU JAN 29 2015

NOTE: "FAIR" INDICATED FEW OR NO CLOUDS BELOW 12,000 FEET WITH NO
SIGNIFICANT WEATHER AND/OR OBSTRUCTIONS TO VISIBILITY.

* - THESE STATIONS ARE NOT NWS OR FAA STATIONS...AND ARE NOT SUBJECT
    TO NWS AND FAA QUALITY CONTROL.

TXZ171-172-183>190-300500-
TEXAS HILL COUNTRY AND EDWARDS PLATEAU

CITY           SKY/WX    TMP DP  RH WIND       PRES   REMARKS
JUNCTION       CLOUDY    56  34  43 NE7       30.40R
*LLANO         CLOUDY    57  34  41 NE9G18    30.44R
BURNET         CLOUDY    57  35  43 NE16G26   30.41R
*HORSESHOE BAY CLOUDY    59  35  39 NE9G16    30.40R
*KERRVILLE     CLEAR     54  39  57 CALM      30.38R
*FREDERICKSBRG CLOUDY    56  36  46 NE13      30.38R
*ROCKSPRINGS   CLOUDY    55  37  50 NE9G18    30.39R
*BOERNE STAGE  CLOUDY    59  39  47 NE6       30.37S
*CASTROVILLE   CLOUDY    65  42  43 NE12G18   30.34S
HONDO          CLOUDY    58  45  62 NE9       30.35R
*UVALDE        CLEAR     60  46  60 NE9       30.33R
DEL RIO        CLOUDY    65  45  48 NE8       30.32R
LAUGHLIN AFB   CLOUDY    63  53  70 NE8       30.33R
CARRIZO SPRGS  PTCLDY    61  54  77 E3        30.28R
$$

TXZ173-191>194-202-209-217>225-228-300500-
CENTRAL AND SOUTH CENTRAL TEXAS

CITY           SKY/WX    TMP DP  RH WIND       PRES   REMARKS
GEORGETOWN     MOCLDY    61  36  39 N15G26    30.39R
AUSTIN/BERGSTM MOCLDY    62  39  42 N21       30.37R
AUSTIN/MABRY   MOCLDY    61  38  42 N9G18     30.38R
*AUSTIN/EXEC   CLOUDY    59  39  47 N17G23    30.38R
*LAGO VISTA    MOCLDY    60  35  39 NE14G22   30.38R
SAN MARCOS     MOCLDY    63  39  42 NE14      30.36R
NEW BRAUNFELS  CLOUDY    62  45  53 NE8       30.34R
RANDOLPH AFB   CLOUDY    64  42  45 NE9       30.35R
PT SAN ANTONIO MOCLDY    66  43  42 NE15      30.32R
SAN ANTONIO    CLOUDY    66  41  40 NE10      30.35R
STINSON FIELD  CLOUDY    65  50  58 NE9       30.32R
*PLEASANTON    PTCLDY    62  55  76 N9        30.31S
*LA GRANGE     MOCLDY    63  48  57 N5        30.32R
*GIDDINGS      MOCLDY    63  41  44 N9        30.38S
*GONZALES      NOT AVBL
$$

TXZ163>164-176>182-195>201-210>213-226-227-235-300500-
SOUTHEAST TEXAS

CITY           SKY/WX    TMP DP  RH WIND       PRES   REMARKS
COLLEGE STN    MOCLDY    62  39  42 N14       30.35R
*BRYAN         MOCLDY    59  40  48 N13G20    30.36R
*CALDWELL      MOCLDY    61  37  41 N13       30.39R
*CROCKETT      MOCLDY    61  43  51 N14G20    30.38R
*BRENHAM       MOCLDY    64  44  47 N13       30.35R
HUNTSVILLE     PTCLDY    60  40  47 VRB6      30.34R
CONROE         MOCLDY    64  43  46 N7        30.32R
HOUSTON BUSH   PTCLDY    64  55  72 N8        30.29R
HOUSTON HOBBY  MOCLDY    64  58  80 S5        30.28R
*HOUSTON SW AP CLEAR     53  51  94 S8        30.30R
PEARLAND       PTCLDY    62  57  83 S7        30.30R
HOUSTON HOOKS  CLEAR     65  53  65 N6        30.31R
ELLINGTON FLD  MOCLDY    64  57  77 SW3       30.30R
SUGAR LAND     PTCLDY    59  55  87 CALM      30.29R
*HOUSTON EXEC  CLOUDY    61  54  77 N9        30.32R
*CLEVELAND MUN   N/A     64  50  59 N6        30.31R
*WHARTON       PTCLDY    62  60  91 W3        30.31R
*COLUMBUS      MOCLDY    62  53  71 N6        30.31R
$$

TXZ214>216-236>238-300500-
THE UPPER TEXAS COAST

CITY           SKY/WX    TMP DP  RH WIND       PRES   REMARKS
*ORANGE        PTCLDY    62  60  91 CALM      30.29R
PORT ARTHUR    PTCLDY    59  57  93 W6        30.27R
GALVESTON      CLEAR     60  60 100 SW5       30.30R
ANGLETON       PTCLDY    57  57 100 CALM      30.30R FOG
*BAY CITY      FOG       58  58 100 CALM      30.30R VSB 1/4
PALACIOS       CLEAR     59  58  96 SW3       30.30R FOG
$$

TXZ229>234-239>247-300500-
TEXAS COASTAL BEND AND RIO GRANDE PLAINS

CITY           SKY/WX    TMP DP  RH WIND       PRES   REMARKS
VICTORIA       CLEAR     59  58  96 CALM      30.31R
*BEEVILLE      CLEAR     59  58  96 N3        30.30R
ROCKPORT       PTCLDY    60  58  92 SE5       30.29R
*PORT ARANSAS  CLEAR     62  60  94 E6        30.29R
*PORT LAVACA   CLEAR     59  58  97 CALM      30.31R
*INGLESIDE     PTCLDY    59  57  95 CALM      30.29R
CORPUS CHRISTI MOCLDY    61  59  93 E7        30.29R
CORPUS NAS     PTCLDY    61  61 100 E7        30.29R
*ROBSTOWN      NOT AVBL
ALICE          MOCLDY    61  59  93 E5        30.28R
KINGSVILLE NAS MOCLDY    62  62 100 E7        30.28R
COTULLA        PTCLDY    64  56  75 E9        30.29R
*FAITH RANCH   PTCLDY    64  55  72 NE7       30.28R
LAREDO         CLEAR     65  58  78 E8        30.29R
$$

TXZ248>255-300500-
DEEP SOUTH TEXAS

CITY           SKY/WX    TMP DP  RH WIND       PRES   REMARKS
BROWNSVILLE    CLEAR     62  60  93 E7        30.26R
PORT ISABEL    CLEAR     64  62  93 E6        30.26R
*SOUTH PADRE   CLEAR     63  63 100 SE3       30.27R
HARLINGEN      CLEAR     61  60  97 E7        30.26R
*HEBBRONVILLE  RAIN      62  58  89 E5        30.29R
MCALLEN        CLEAR     65  61  87 E8        30.26R
*WESLACO       CLEAR     64  60  86 E6        30.26R
FALFURRIAS     MOCLDY    61  59  92 NE5       30.27R
EDINBURG       CLEAR     66  61  82 SE8       30.26R
*ZAPATA        CLEAR     66  58  74 E8        30.25R
$$

TXZ213>215-236>238-242>244-246-247-251-254-255-300500-
CMAN STATIONS

STATION/POSITION TIME  TEMP    WIND        PRES    WAVE
                       AIR SEA DIR/SP/G            HT/PER
                 (UTC) (F)     (DEG/KT/KT) (MB)    (FT/S)
SABINE PASS      0400   60 56  260/  3/  5 1025.1
SEA RIM ST PARK  0400   59     270/  6/  6 1025.7
NORTH JETTY/GLS  0400   62 59  260/  5/  5   N/A
EAGLE POINT      0400   62 59  260/  4/  5 1025.5
MORGANS POINT    0400   63        CALM     1025.4
MISSION/ARANSAS  0300   63     VRB  5      1026.0
PORT O`CONNOR    0400          150/  2/  3   N/A
PORT ARANSAS     0400   63 62   80/  7/  7 1026.3
MALAQUITE BEACH  0400   62 65   50/  6/  7 1024.9
BAFFIN BAY       0400   63      90/  7/  8 1025.1
PORT ISABEL      0400   65 61   70/  5/  7 1024.7
$$

GMZ080-GMZ150>470-300500-
OFFSHORE BUOY REPORTS

STATION/POSITION TIME  TEMP    WIND        PRES    WAVE
                       AIR SEA DIR/SP/G            HT/PER
                 (UTC) (F)     (DEG/KT/KT) (MB)    (FT/S)
20 E GALVESTON   0400   61 60  220/  4/  4 1025.0    1/ 5
90 E PT ARANSAS  0400   67 67   90/  2/  2 1026.1    2/ 4
35 NE PT MANSFLD 0400   69 70  100/  8/ 10 1025.0    2/ 5
200 E PT ISABEL  0400   71 72   80/  4/  6 1024.7    2/ 4
$$